[[{"header":{"parameterUnit":"m.s-1","parameterCategory":1,"la1":30.2991,"la2":30.254,"lo1":-89.0895,"lo2":-89.0444,"dy":0.0017,"dx":0.0017,"nx":28,"ny":28,"refTime":"2024-04-19T03:00:00:Z","depth":0,"parameterNumber":2,"parameterNumberName":"U-component_of_WINDS"},"data":[0,0,0,0,0,0,0,0,0,0,0,0,0,0,0,0,0,0,0,0,0,0,0,0,0,0,0,0,0,0,0,0,0,0,0,0,0,0,0,0,0,0,0,0,0,0,0,0,0,0,0,0,0,0,0,0,0,0,0.2683,0.2683,0,0.2716,0.2717,0.2717,0.2722,0.2722,0.2721,0.2721,0.2753,0.2754,0.2755,0,0,0,0,0,0,0,0,0,0,0,0,0,0.2619,0.262,0.2683,0.2683,0.2683,0.2716,0.2717,0.2717,0.2722,0.2722,0.2721,0.2721,0.2752,0.2754,0.2755,0,0,0,0,0,0,0,0,0,0,0,0,0,0.2649,0.262,0.2682,0.269,0.2691,0.2716,0.2717,0.2717,0.2722,0.2722,0.2721,0.2721,0.2752,0.2754,0.2755,0.2774,0,0,0.276,0.2761,0,0,0,0,0,0,0,0,0.2647,0.2651,0.2688,0.2689,0.2691,0.2715,0.2706,0.2736,0.2722,0.271,0.2721,0.2721,0.274,0.2743,0.275,0.2776,0.2777,0.2761,0.2762,0.2762,0.2763,0,0,0,0,0,0,0,0.2645,0.265,0.2696,0.2689,0.269,0.269,0.2694,0.2712,0.2727,0.2711,0.2712,0.2716,0.2741,0.2748,0.2751,0.2778,0.276,0.2762,0.2763,0.2764,0.282,0.2821,0,0,0,0,0,0,0.2642,0.2648,0.2695,0.2697,0.2667,0.2692,0.2696,0.2707,0.2727,0.273,0.2716,0.2716,0.2746,0.2749,0.2752,0.2776,0.2762,0.2764,0.2765,0.282,0.282,0.2821,0,0,0,0,0,0,0.2641,0.2646,0.2693,0.2673,0.2679,0.2693,0.2706,0.2708,0.2716,0.2731,0.2733,0.2721,0.2746,0.275,0.2769,0.2777,0.2765,0.2766,0.2819,0.282,0.2821,0.2823,0,0,0,0,0,0,0.2639,0.2646,0.2654,0.2673,0.268,0.2711,0.2706,0.2709,0.2719,0.2719,0.2736,0.2739,0.2745,0.2766,0.2771,0.2779,0.2767,0.2818,0.2819,0.282,0.2822,0.2824,0.2825,0,0,0,0,0,0.2637,0.2653,0.2655,0.266,0.2691,0.2711,0.2715,0.2724,0.272,0.2728,0.2737,0.2738,0.2775,0.2768,0.2773,0.2782,0.2818,0.2819,0.282,0.2822,0.2824,0.2825,0,0,0,0,0,0,0.2634,0.2656,0.2658,0.2681,0.2694,0.2712,0.2723,0.2725,0.2739,0.2739,0.2747,0.2751,0.277,0.2778,0.277,0.2801,0.2796,0.2798,0.2796,0.2797,0.2799,0.2797,0.2769,0,0,0,0,0,0.2637,0.2653,0.267,0.2689,0.2695,0.2708,0.2717,0.2722,0.2736,0.2742,0.2752,0.2765,0.2779,0.2789,0.2803,0.2823,0.2827,0.2831,0.2833,0.2834,0.2836,0.2847,0.2849,0.2824,0.2824,0.2824,0,0,0.2641,0.2655,0.2664,0.2689,0.27,0.2715,0.2713,0.2729,0.274,0.2744,0.2763,0.2771,0.2786,0.2806,0.2815,0.2813,0.2843,0.2835,0.2836,0.2837,0.2848,0.285,0.2852,0.2825,0.2825,0.2825,0,0,0.2658,0.267,0.2687,0.2698,0.2715,0.2723,0.2727,0.2744,0.275,0.277,0.2773,0.2785,0.281,0.282,0.2828,0.2847,0.2849,0.2852,0.2859,0.2869,0.2871,0.2873,0.288,0.2882,0.2853,0.2853,0.2853,0,0.2661,0.2686,0.2695,0.2712,0.2722,0.2726,0.2742,0.2752,0.2773,0.2779,0.2776,0.2807,0.2817,0.2839,0.2844,0.285,0.2854,0.285,0.287,0.2872,0.2874,0.288,0.2883,0.2853,0.2853,0.2853,0.2853,0,0.2689,0.2706,0.2717,0.2738,0.2749,0.2765,0.2775,0.2785,0.2789,0.2797,0.2816,0.2828,0.2844,0.285,0.2853,0.2872,0.287,0.2869,0.2864,0.2876,0.2883,0.2885,0.2854,0.2854,0.2854,0.2854,0,0,0.2707,0.2731,0.2735,0.2744,0.2763,0.2775,0.2791,0.2808,0.2816,0.2829,0.2842,0.2863,0.2861,0.2871,0.2875,0.2884,0.2898,0.2882,0.2882,0.2884,0.2919,0.2921,0.2923,0.2899,0.2899,0.29,0.2918,0,0.2725,0.2755,0.2763,0.2788,0.2803,0.2807,0.282,0.2832,0.284,0.2853,0.286,0.2874,0.2872,0.2877,0.2886,0.2895,0.2905,0.2893,0.291,0.2911,0.2907,0.2927,0.2928,0.2945,0.292,0.2921,0.2921,0,0.2752,0.2767,0.2793,0.2809,0.2816,0.2828,0.2844,0.2856,0.2869,0.2874,0.2884,0.2888,0.2903,0.2897,0.2917,0.2909,0.2916,0.2921,0.2922,0.2924,0.2917,0.293,0.295,0.2953,0.2925,0.2925,0.2925,0,0.2762,0.2788,0.2807,0.2815,0.2834,0.2843,0.2851,0.2864,0.2873,0.2886,0.2892,0.2906,0.2914,0.2924,0.2931,0.2926,0.2951,0.2945,0.2955,0.2954,0.296,0.296,0.2983,0.2964,0.2964,0.2964,0.2964,0,0.2783,0.2799,0.2812,0.2824,0.2842,0.285,0.2866,0.2874,0.2886,0.2898,0.2902,0.2913,0.2921,0.2933,0.2938,0.2954,0.2958,0.2961,0.2963,0.2961,0.2961,0.2967,0.2966,0.2965,0.2965,0.2965,0.2964,0,0.2797,0.2807,0.2828,0.2844,0.2849,0.2861,0.2874,0.2885,0.2892,0.2908,0.2912,0.2923,0.2937,0.2945,0.2963,0.2966,0.2984,0.2984,0.298,0.2981,0.2989,0.2989,0.3017,0.3021,0.3,0.3,0.3,0,0.281,0.2823,0.284,0.2849,0.2858,0.2872,0.2882,0.289,0.2899,0.2915,0.2924,0.2939,0.2951,0.2973,0.2982,0.2996,0.2996,0.3005,0.2998,0.2997,0.2997,0.2996,0.2997,0.3007,0.3007,0.3007,0.3007,0,0.2832,0.2836,0.285,0.2866,0.2877,0.289,0.2902,0.2909,0.2919,0.2929,0.2944,0.2954,0.2972,0.2987,0.3,0.3007,0.3009,0.3009,0.3012,0.3011,0.3008,0.301,0.2984,0.3009,0.3009,0.3009,0.3008,0.3008,0.2846,0.2857,0.2871,0.2887,0.2897,0.2908,0.2919,0.2928,0.2941,0.2957,0.296,0.2976,0.2988,0.3007,0.3014,0.3026,0.3024,0.3028,0.3029,0.303,0.3031,0.3006,0.3028,0.3028,0.3028,0.3028,0.3028,0,0.2868,0.2877,0.2891,0.2909,0.292,0.2921,0.2935,0.2944,0.2959,0.297,0.2982,0.2999,0.3012,0.3022,0.3036,0.3043,0.3044,0.3047,0.3046,0.3048,0.3032,0.3028,0.3046,0.3046,0.3046,0.3046,0.3046,0.3046,0.2881,0.29,0.2905,0.2928,0.2937,0.2954,0.2961,0.2971,0.298,0.2999,0.3011,0.3017,0.3027,0.3042,0.3054,0.3056,0.3061,0.3063,0.3066,0.3051,0.3049,0.3047,0.3044,0.3064,0.3064,0.3081,0.3081,0.3081]},{"header":{"parameterUnit":"m.s-1","parameterCategory":1,"la1":30.2991,"la2":30.254,"lo1":-89.0895,"lo2":-89.0444,"dy":0.0017,"dx":0.0017,"nx":28,"ny":28,"refTime":"2024-04-19T03:00:00:Z","depth":0,"parameterNumber":3,"parameterNumberName":"V-component_of_WINDS"},"data":[0,0,0,0,0,0,0,0,0,0,0,0,0,0,0,0,0,0,0,0,0,0,0,0,0,0,0,0,0,0,0,0,0,0,0,0,0,0,0,0,0,0,0,0,0,0,0,0,0,0,0,0,0,0,0,0,0,0,2.4337,2.4337,0,2.4362,2.4362,2.4362,2.4338,2.4337,2.4336,2.4335,2.4359,2.436,2.4362,0,0,0,0,0,0,0,0,0,0,0,0,0,2.4268,2.4269,2.4337,2.4337,2.4338,2.4362,2.4362,2.4362,2.4338,2.4337,2.4336,2.4335,2.4358,2.436,2.4362,0,0,0,0,0,0,0,0,0,0,0,0,0,2.4296,2.427,2.4337,2.4329,2.4328,2.4362,2.4362,2.4362,2.4339,2.4337,2.4336,2.4335,2.4358,2.436,2.4362,2.4404,0,0,2.4369,2.437,0,0,0,0,0,0,0,0,2.4294,2.4298,2.433,2.4329,2.4329,2.4346,2.4346,2.4376,2.4339,2.4335,2.4335,2.4334,2.4355,2.4358,2.4365,2.4405,2.4406,2.4369,2.437,2.4371,2.4372,0,0,0,0,0,0,0,2.4292,2.4297,2.4347,2.433,2.433,2.4323,2.4326,2.4352,2.4353,2.4335,2.4333,2.4337,2.4355,2.4363,2.4366,2.4406,2.4369,2.4371,2.4372,2.4373,2.4482,2.4484,0,0,0,0,0,0,2.4291,2.4295,2.4346,2.4348,2.4308,2.4326,2.4328,2.4342,2.4352,2.4352,2.4338,2.4335,2.436,2.4363,2.4366,2.4417,2.4371,2.4373,2.4375,2.4481,2.4483,2.4484,0,0,0,0,0,0,2.429,2.4296,2.4345,2.4321,2.4327,2.4328,2.4343,2.4343,2.4351,2.4354,2.4354,2.4346,2.4359,2.4363,2.4395,2.4417,2.4374,2.4376,2.4479,2.4481,2.4483,2.4517,0,0,0,0,0,0,2.4288,2.4296,2.4312,2.4322,2.4328,2.4374,2.4345,2.4344,2.4355,2.4352,2.4362,2.4363,2.4358,2.4392,2.4397,2.4419,2.4378,2.4477,2.448,2.4483,2.4514,2.452,2.4526,0,0,0,0,0,2.4286,2.432,2.4313,2.4319,2.4349,2.4375,2.4379,2.4374,2.4357,2.4374,2.4376,2.4362,2.4414,2.4395,2.4401,2.4424,2.4475,2.4479,2.4482,2.4512,2.4519,2.4526,0,0,0,0,0,0,2.4312,2.4321,2.4314,2.4352,2.4363,2.4371,2.4392,2.4382,2.4397,2.4394,2.4386,2.4389,2.4423,2.4426,2.4406,2.4466,2.4442,2.4447,2.4462,2.4469,2.4475,2.4473,2.438,0,0,0,0,0,2.4323,2.4344,2.4351,2.4384,2.439,2.439,2.4401,2.4397,2.4407,2.4412,2.4416,2.4426,2.4445,2.4457,2.4474,2.4515,2.4516,2.4533,2.4539,2.4544,2.4548,2.457,2.4578,2.4496,2.4496,2.4496,0,0,2.4345,2.4352,2.4366,2.439,2.4398,2.442,2.4394,2.4418,2.4434,2.4415,2.4446,2.4449,2.446,2.4497,2.4513,2.4501,2.4571,2.4548,2.4552,2.4554,2.4574,2.4582,2.4589,2.4498,2.4498,2.4497,0,0,2.4396,2.4404,2.4433,2.4441,2.4454,2.4454,2.4461,2.447,2.4472,2.4503,2.4489,2.4508,2.454,2.4548,2.4557,2.4611,2.46,2.4617,2.4648,2.4669,2.4675,2.4681,2.4701,2.4708,2.4621,2.4621,2.4622,0,2.4421,2.4454,2.4449,2.4474,2.4485,2.4469,2.4498,2.4507,2.4524,2.4532,2.4518,2.4559,2.4565,2.4603,2.4617,2.4624,2.4631,2.4616,2.4675,2.4681,2.4686,2.4704,2.4712,2.4624,2.4623,2.4623,2.4623,0,2.4485,2.4508,2.4529,2.4548,2.4561,2.4588,2.4586,2.46,2.4594,2.4595,2.4626,2.4633,2.4652,2.4661,2.4655,2.4698,2.469,2.4676,2.4652,2.4696,2.4713,2.472,2.4626,2.4626,2.4625,2.4625,0,0,2.4553,2.4568,2.4576,2.4585,2.4598,2.4615,2.4641,2.466,2.4672,2.4684,2.4706,2.4734,2.4721,2.4731,2.4725,2.4744,2.4787,2.4727,2.4728,2.4738,2.4836,2.4847,2.4855,2.4779,2.4781,2.4782,2.4835,0,2.4605,2.4651,2.4647,2.4691,2.4712,2.4698,2.472,2.4731,2.4732,2.475,2.4751,2.4771,2.4752,2.4758,2.4776,2.4778,2.4807,2.4774,2.4799,2.48,2.4797,2.4864,2.4876,2.4925,2.4842,2.4843,2.4844,0,2.4671,2.4687,2.4733,2.4743,2.4752,2.4773,2.479,2.4807,2.4818,2.4818,2.4829,2.4821,2.4847,2.4822,2.4857,2.4836,2.4845,2.4848,2.485,2.4852,2.4825,2.4868,2.4941,2.4948,2.4854,2.4853,2.4853,0,2.4717,2.4749,2.4781,2.4789,2.4801,2.4816,2.4822,2.4832,2.4843,2.4858,2.4865,2.4883,2.4892,2.4905,2.4902,2.4884,2.4938,2.4913,2.4939,2.4939,2.4951,2.495,2.5026,2.4957,2.4957,2.4957,2.4956,0,2.4775,2.4804,2.4802,2.4822,2.4854,2.4848,2.488,2.4883,2.4892,2.4912,2.49,2.4919,2.4913,2.4931,2.4929,2.4959,2.4963,2.4963,2.4962,2.4965,2.4965,2.4971,2.4968,2.4959,2.4958,2.4958,2.4957,0,2.4831,2.4831,2.4865,2.4875,2.4878,2.4901,2.4908,2.4927,2.4927,2.4953,2.4958,2.4959,2.498,2.4978,2.5001,2.4999,2.5037,2.5031,2.5033,2.5032,2.5058,2.5056,2.5141,2.5152,2.5075,2.5076,2.5077,0,2.4869,2.4891,2.4903,2.4915,2.4923,2.4943,2.4955,2.4951,2.4964,2.4978,2.4995,2.5015,2.5031,2.5065,2.5067,2.5085,2.508,2.5109,2.5082,2.5084,2.5081,2.508,2.5082,2.5114,2.5115,2.5115,2.5116,0,2.4935,2.4934,2.4952,2.4971,2.4986,2.5,2.5013,2.5024,2.5021,2.5036,2.5057,2.507,2.5094,2.5114,2.5131,2.5136,2.5126,2.5124,2.5131,2.5134,2.5134,2.5135,2.5048,2.5122,2.5122,2.5121,2.5121,2.5121,2.4983,2.5002,2.5014,2.5035,2.5044,2.5056,2.5074,2.5078,2.5096,2.5116,2.5112,2.5136,2.5146,2.5168,2.5175,2.5194,2.5183,2.5193,2.5196,2.5198,2.5202,2.5131,2.5197,2.5197,2.5196,2.5196,2.5196,0,2.5049,2.5056,2.5075,2.5094,2.511,2.51,2.5113,2.5128,2.515,2.5161,2.5177,2.5202,2.5221,2.5225,2.5244,2.5258,2.5254,2.5263,2.5262,2.5263,2.521,2.5202,2.5266,2.5266,2.5266,2.5266,2.5266,2.5266,2.5085,2.5117,2.5118,2.5154,2.516,2.5185,2.5194,2.5205,2.5214,2.5242,2.5259,2.5261,2.527,2.5289,2.5306,2.5307,2.5314,2.5325,2.5324,2.5274,2.5267,2.526,2.5253,2.5327,2.5327,2.5376,2.5377,2.5377]}]]